Regional Weather Roundup
Issued by NWS

Home | Current Version | Previous Version | Text Only | Print | Product List | Glossary On
Versions: 1 2 3 4 5 6 7 8 9 10 11 12 13 14 15 16 17 18 19 20 21 22 23 24 25 26 27 28
000
ASCA42 TJSJ 191410
RWRPR
PUERTO RICO/U.S. VIRGIN ISLANDS HOURLY WEATHER ROUNDUP
NATIONAL WEATHER SERVICE SAN JUAN PR
1000 AM AST TUE SEP 19 2017

PRZ001>002-007>008-010-191500-
PUERTO RICO

CITY           SKY/WX    TMP DP  RH WIND       PRES   REMARKS
SAN JUAN LMM   PTSUNNY   88  79  74 NE16G22   29.91S HX 102
AGUADILLA      PTSUNNY   84  75  74 E15       29.95R HX  92
CEIBA          MOSUNNY   84  79  84 NE16G26   29.92S HX  96
$$

VIZ001>002-191500-
U.S. VIRGIN ISLANDS

CITY           SKY/WX    TMP DP  RH WIND       PRES   REMARKS
CHARLOTTE AMA  LGT RAIN  79  75  89 NE18G32   29.89R
CHRISTIANSTED  LGT RAIN  75  73  94 N12G22    29.86S
$$

HOURLY WEATHER ROUNDUP FOR THE NEWS MEDIA

CITY           SKY/WX    TMP DP  RH WIND       PRES   REMARKS
NEW YORK       PTSUNNY   75  65  70 NE22G32   30.00F
NEWARK         PTSUNNY   76  66  71 N15G21    30.00S
CHICAGO        CLOUDY    69  64  84 NW3       29.96R
HARTFORD       LGT RAIN  66  65  96 N12G18    30.05F FOG
BOSTON         FOG       64  63  96 N12       30.13S VSB 1
DALLAS         PTSUNNY   80  72  76 S10       29.93R
PHILADELPHIA   PTSUNNY   75  66  73 N17G31    29.98S
LOS ANGELES    CLOUDY    68  61  78 CALM      29.92R
WASHINGTON DC  CLOUDY    70  66  87 N12       30.03R



USA.gov is the U.S. government's official web portal to all federal, state and local government web resources and services.